[[{"header":{"parameterUnit":"m.s-1","parameterCategory":1,"la1":30.2991,"la2":30.254,"lo1":-89.0895,"lo2":-89.0444,"dy":0.0017,"dx":0.0017,"nx":28,"ny":28,"refTime":"2024-03-06T03:00:00:Z","depth":0,"parameterNumber":2,"parameterNumberName":"U-component_of_WINDS"},"data":[0,0,0,0,0,0,0,0,0,0,0,0,0,0,0,0,0,0,0,0,0,0,0,0,0,0,0,0,0,0,0,0,0,0,0,0,0,0,0,0,0,0,0,0,0,0,0,0,0,0,0,0,0,0,0,0,0,0,1.0057,1.0057,0,0.9987,0.9986,0.9986,0.9905,0.9903,0.9902,0.9901,0.9827,0.9827,0.9826,0,0,0,0,0,0,0,0,0,0,0,0,0,1.0121,1.012,1.0058,1.0057,1.0056,0.9987,0.9986,0.9985,0.9905,0.9903,0.9902,0.99,0.9828,0.9827,0.9826,0,0,0,0,0,0,0,0,0,0,0,0,0,1.0076,1.012,1.0058,1.0007,1.0002,0.9988,0.9986,0.9985,0.9905,0.9903,0.9901,0.99,0.9828,0.9827,0.9826,0.9854,0,0,0.9822,0.9821,0,0,0,0,0,0,0,0,1.0079,1.0074,1.0016,1.0011,1.0005,0.9953,0.9982,0.9941,0.9906,0.9942,0.9901,0.9899,0.9871,0.9866,0.9856,0.9851,0.9848,0.9822,0.9821,0.982,0.982,0,0,0,0,0,0,0,1.0082,1.0077,1.003,1.0015,1.0008,0.9988,0.998,0.9974,0.9917,0.9939,0.9933,0.9925,0.9867,0.9858,0.9854,0.9847,0.9822,0.9821,0.982,0.9819,0.9863,0.9864,0,0,0,0,0,0,1.0093,1.008,1.0032,1.0027,1.0038,0.9988,0.9979,0.9971,0.9917,0.9907,0.9927,0.9922,0.9861,0.9856,0.9851,0.9882,0.982,0.9819,0.9819,0.9861,0.9863,0.9865,0,0,0,0,0,0,1.0095,1.0089,1.0035,1.0052,1.0043,0.9989,0.9981,0.9971,0.9961,0.9908,0.9898,0.9928,0.9859,0.9853,0.9855,0.9879,0.9819,0.9818,0.9858,0.9861,0.9864,0.9945,0,0,0,0,0,0,1.0097,1.009,1.0101,1.0053,1.0043,1.004,0.9983,0.9971,0.996,0.9952,0.9906,0.9897,0.9857,0.9857,0.9853,0.9876,0.9817,0.9856,0.986,0.9863,0.994,0.995,0.9959,0,0,0,0,0,1.0099,1.0126,1.0102,1.0097,1.0055,1.0041,1.0036,0.999,0.9962,0.9972,0.9938,0.9898,0.9877,0.9858,0.9853,0.9876,0.9854,0.9859,0.9863,0.9935,0.9948,0.9959,0,0,0,0,0,0,1.0178,1.0119,1.0092,1.0104,1.0078,1.0028,1.0039,1.0004,0.9986,0.998,0.9923,0.9914,0.9922,0.9899,0.9879,0.9901,0.986,0.9863,0.9917,0.9928,0.9937,0.9943,0.9816,0,0,0,0,0,1.0197,1.0191,1.0139,1.0155,1.0144,1.0094,1.0086,1.0053,1.0025,1.0013,0.9979,0.9953,0.994,0.9932,0.9917,0.9936,0.9925,0.9949,0.9958,0.9966,0.997,0.998,0.999,0.9879,0.9879,0.9879,0,0,1.0235,1.0202,1.0202,1.017,1.0146,1.0142,1.0085,1.0082,1.0078,1.0012,1.0013,0.9987,0.9953,0.9964,0.9967,0.9944,0.9999,0.9972,0.9979,0.9978,0.9985,0.9996,1.0005,0.9882,0.9881,0.9881,0,0,1.0304,1.0278,1.0289,1.0266,1.0232,1.0199,1.0202,1.0156,1.0137,1.0136,1.0087,1.0081,1.006,1.0038,1.0025,1.0086,1.0049,1.0083,1.0133,1.0142,1.0151,1.0159,1.0182,1.019,1.0087,1.0087,1.0087,0,1.0356,1.0347,1.0298,1.0299,1.0287,1.0227,1.0238,1.0219,1.0181,1.0174,1.0149,1.0122,1.0095,1.0101,1.0116,1.0106,1.0108,1.0088,1.0154,1.0161,1.0167,1.0189,1.0197,1.0091,1.0091,1.009,1.009,0,1.0414,1.0409,1.0421,1.0388,1.0377,1.0382,1.0334,1.0329,1.0297,1.0266,1.0267,1.0233,1.021,1.0209,1.0177,1.021,1.0197,1.0164,1.0122,1.0183,1.0202,1.021,1.0097,1.0096,1.0095,1.0093,0,0,1.0529,1.0469,1.0475,1.046,1.0418,1.0412,1.0416,1.0395,1.0392,1.0367,1.0369,1.0353,1.0322,1.0307,1.0272,1.0281,1.0333,1.0246,1.0245,1.0265,1.0368,1.0395,1.0405,1.0308,1.0309,1.031,1.0372,0,1.0591,1.0594,1.055,1.0565,1.056,1.0504,1.0507,1.0481,1.0453,1.0445,1.0413,1.0403,1.0363,1.0353,1.0359,1.0326,1.0353,1.032,1.0309,1.031,1.0321,1.0414,1.0442,1.0501,1.0379,1.038,1.0381,0,1.0663,1.0645,1.0659,1.0618,1.0614,1.0617,1.0595,1.0588,1.0558,1.0537,1.052,1.0481,1.0481,1.0441,1.044,1.0419,1.0412,1.0395,1.0396,1.0394,1.035,1.0416,1.0519,1.0529,1.0392,1.0391,1.039,0,1.0747,1.0726,1.0732,1.072,1.0672,1.0676,1.0656,1.0624,1.0615,1.0595,1.0589,1.0569,1.0559,1.0544,1.0501,1.0475,1.0506,1.0461,1.0489,1.0491,1.0499,1.0499,1.0603,1.0493,1.0493,1.0492,1.0492,0,1.0821,1.0832,1.077,1.0774,1.0785,1.0735,1.0747,1.0721,1.0694,1.0692,1.0642,1.0641,1.0584,1.0576,1.0542,1.0548,1.0543,1.0526,1.0517,1.0531,1.0534,1.0527,1.0522,1.0495,1.0494,1.0494,1.0493,0,1.0917,1.0876,1.0879,1.0834,1.0822,1.0833,1.0793,1.0795,1.0764,1.0763,1.0759,1.071,1.0699,1.0655,1.0632,1.0609,1.0627,1.0608,1.0637,1.0632,1.0662,1.0661,1.0766,1.0778,1.066,1.0661,1.0662,0,1.0968,1.0975,1.0931,1.0927,1.0909,1.0902,1.0893,1.0844,1.0836,1.0803,1.0809,1.0795,1.078,1.0765,1.0727,1.071,1.0692,1.073,1.0689,1.0703,1.0694,1.0694,1.0695,1.0739,1.0741,1.0742,1.0743,0,1.1062,1.1041,1.103,1.1012,1.1002,1.0985,1.0965,1.0965,1.091,1.0904,1.0892,1.0882,1.086,1.0846,1.0823,1.0801,1.0764,1.0756,1.0762,1.0777,1.0794,1.0787,1.0663,1.0754,1.0753,1.0752,1.0752,1.0751,1.1137,1.1142,1.1112,1.1101,1.1081,1.1064,1.1064,1.1034,1.1024,1.1003,1.0974,1.0967,1.0938,1.0903,1.0885,1.0879,1.0857,1.0865,1.0867,1.0871,1.0878,1.0795,1.0874,1.0874,1.0873,1.0873,1.0873,0,1.1229,1.1207,1.1198,1.1173,1.1165,1.1131,1.1107,1.1103,1.1097,1.1073,1.1061,1.1048,1.1035,1.0997,1.098,1.0982,1.0964,1.0979,1.0979,1.0975,1.0897,1.0895,1.0994,1.0994,1.0994,1.0994,1.0994,1.0994,1.1276,1.1283,1.1259,1.1256,1.1234,1.1227,1.1217,1.1201,1.1182,1.1171,1.116,1.1136,1.1106,1.1087,1.1073,1.1062,1.1059,1.108,1.1063,1.0992,1.098,1.0969,1.0967,1.1079,1.1079,1.1141,1.1142,1.1142]},{"header":{"parameterUnit":"m.s-1","parameterCategory":1,"la1":30.2991,"la2":30.254,"lo1":-89.0895,"lo2":-89.0444,"dy":0.0017,"dx":0.0017,"nx":28,"ny":28,"refTime":"2024-03-06T03:00:00:Z","depth":0,"parameterNumber":3,"parameterNumberName":"V-component_of_WINDS"},"data":[0,0,0,0,0,0,0,0,0,0,0,0,0,0,0,0,0,0,0,0,0,0,0,0,0,0,0,0,0,0,0,0,0,0,0,0,0,0,0,0,0,0,0,0,0,0,0,0,0,0,0,0,0,0,0,0,0,0,0.2162,0.2163,0,0.2264,0.2265,0.2267,0.2351,0.2351,0.2352,0.2353,0.2461,0.2463,0.2465,0,0,0,0,0,0,0,0,0,0,0,0,0,0.2042,0.2044,0.2162,0.2163,0.2164,0.2264,0.2265,0.2267,0.235,0.2351,0.2353,0.2353,0.2461,0.2463,0.2465,0,0,0,0,0,0,0,0,0,0,0,0,0,0.2114,0.2045,0.2162,0.2218,0.2224,0.2264,0.2266,0.2267,0.235,0.2351,0.2353,0.2354,0.246,0.2463,0.2466,0.2459,0,0,0.2475,0.2477,0,0,0,0,0,0,0,0,0.211,0.2119,0.2209,0.2214,0.2221,0.2296,0.2263,0.2332,0.235,0.2302,0.2353,0.2355,0.2405,0.2413,0.2429,0.2464,0.2469,0.2476,0.2477,0.2479,0.248,0,0,0,0,0,0,0,0.2105,0.2115,0.2203,0.221,0.2217,0.2239,0.2251,0.2276,0.2345,0.2307,0.2313,0.2324,0.2409,0.2426,0.2433,0.247,0.2475,0.2478,0.248,0.2481,0.2505,0.2504,0,0,0,0,0,0,0.2091,0.211,0.2199,0.2206,0.2168,0.224,0.2254,0.2271,0.2345,0.2358,0.2323,0.2327,0.242,0.2429,0.2437,0.2434,0.2479,0.2482,0.2483,0.2506,0.2505,0.2504,0,0,0,0,0,0,0.2088,0.2098,0.2195,0.216,0.2174,0.2241,0.226,0.2272,0.2289,0.2357,0.237,0.2327,0.2422,0.2432,0.2453,0.2439,0.2483,0.2486,0.2508,0.2506,0.2504,0.2429,0,0,0,0,0,0,0.2084,0.2097,0.2094,0.2159,0.2175,0.2208,0.2259,0.2273,0.2294,0.2301,0.2365,0.2377,0.2424,0.2448,0.2456,0.2444,0.2488,0.2509,0.2507,0.2505,0.2433,0.2424,0.2417,0,0,0,0,0,0.208,0.2069,0.2093,0.2104,0.2173,0.2207,0.2217,0.2269,0.2292,0.2291,0.2335,0.2375,0.2439,0.2449,0.2459,0.2448,0.2511,0.2508,0.2505,0.2436,0.2426,0.2418,0,0,0,0,0,0,0.2002,0.2079,0.2106,0.2116,0.2154,0.2221,0.2221,0.2257,0.229,0.2296,0.2361,0.2375,0.2388,0.242,0.243,0.2446,0.248,0.2479,0.2424,0.2415,0.2408,0.24,0.2491,0,0,0,0,0,0.1986,0.2006,0.2072,0.2075,0.2092,0.2153,0.217,0.2207,0.225,0.2267,0.2312,0.2353,0.2383,0.2401,0.2432,0.2437,0.2453,0.2435,0.2427,0.2421,0.242,0.2426,0.2419,0.2495,0.2495,0.2495,0,0,0.1953,0.1997,0.2006,0.206,0.2094,0.2115,0.2166,0.2186,0.2202,0.227,0.2292,0.2326,0.2377,0.239,0.2398,0.2417,0.2402,0.2417,0.2411,0.2414,0.2423,0.2415,0.2409,0.2493,0.2493,0.2493,0,0,0.1904,0.1939,0.1945,0.1978,0.2028,0.2068,0.2069,0.2131,0.2156,0.2179,0.223,0.2251,0.23,0.2334,0.2358,0.2321,0.236,0.2329,0.229,0.2296,0.229,0.2285,0.2273,0.2267,0.2328,0.2327,0.2327,0,0.1857,0.1889,0.1944,0.196,0.1983,0.2044,0.2051,0.2081,0.2139,0.2154,0.2174,0.2237,0.2275,0.2297,0.2288,0.2305,0.231,0.2323,0.2286,0.2281,0.2278,0.2267,0.2262,0.2323,0.2324,0.2324,0.2325,0,0.183,0.1851,0.185,0.1904,0.1926,0.1938,0.1995,0.2011,0.2046,0.2085,0.2108,0.2155,0.2197,0.2205,0.224,0.2233,0.2243,0.2273,0.2309,0.2266,0.2257,0.2253,0.2318,0.2319,0.232,0.2321,0,0,0.1736,0.1818,0.1817,0.1842,0.1902,0.192,0.1935,0.1975,0.1988,0.2026,0.2041,0.2081,0.2109,0.2136,0.2175,0.218,0.2149,0.2211,0.2213,0.2198,0.2145,0.2123,0.2117,0.2175,0.2174,0.2174,0.2142,0,0.1698,0.1726,0.1776,0.1789,0.181,0.1868,0.1881,0.192,0.1956,0.198,0.2021,0.2048,0.2083,0.21,0.2107,0.2151,0.214,0.2154,0.2191,0.2192,0.2177,0.2112,0.2089,0.2056,0.2138,0.2138,0.2137,0,0.1657,0.169,0.1705,0.1763,0.1774,0.1784,0.1825,0.1846,0.1892,0.1918,0.1947,0.199,0.201,0.2041,0.2071,0.208,0.2098,0.2122,0.2122,0.2128,0.2162,0.2118,0.2047,0.2042,0.2132,0.2133,0.2133,0,0.1588,0.1637,0.1652,0.1671,0.1739,0.1746,0.1774,0.1821,0.1842,0.1877,0.1892,0.193,0.1951,0.198,0.2032,0.205,0.2056,0.2092,0.208,0.2078,0.208,0.2079,0.2011,0.2089,0.2089,0.2089,0.2089,0,0.1541,0.1548,0.1622,0.1631,0.1642,0.1698,0.1707,0.1742,0.1782,0.1801,0.1853,0.187,0.1937,0.1961,0.2002,0.2021,0.203,0.2053,0.2064,0.2049,0.2046,0.2063,0.2067,0.2088,0.2088,0.2088,0.2088,0,0.1467,0.1516,0.1537,0.1599,0.1614,0.1619,0.1673,0.1685,0.1724,0.1746,0.1755,0.1817,0.1848,0.1903,0.1951,0.1978,0.199,0.2008,0.1974,0.1981,0.1966,0.1967,0.1908,0.1903,0.1981,0.1981,0.198,0,0.1434,0.144,0.1502,0.1518,0.1544,0.1568,0.1589,0.1645,0.1665,0.1717,0.1723,0.1758,0.179,0.1838,0.1888,0.1925,0.1946,0.1922,0.1952,0.1936,0.1947,0.1946,0.1948,0.1916,0.1915,0.1914,0.1913,0,0.1371,0.1395,0.1422,0.1458,0.1481,0.1512,0.1546,0.1556,0.162,0.164,0.1673,0.1697,0.1745,0.178,0.1824,0.1856,0.1896,0.1903,0.1902,0.1888,0.1868,0.188,0.1957,0.1904,0.1905,0.1906,0.1906,0.1907,0.1318,0.1326,0.1371,0.14,0.1431,0.1461,0.1476,0.1515,0.1543,0.1585,0.1617,0.1647,0.1693,0.1756,0.1785,0.1811,0.1829,0.1828,0.1828,0.1827,0.1822,0.1862,0.1819,0.1819,0.182,0.182,0.182,0,0.1258,0.1289,0.1315,0.136,0.1383,0.1416,0.1456,0.1473,0.1498,0.1537,0.1566,0.1603,0.1638,0.169,0.1729,0.1739,0.1758,0.1747,0.1748,0.1755,0.1803,0.18,0.1731,0.1731,0.1731,0.1731,0.1731,0.1731,0.123,0.1247,0.1275,0.1308,0.134,0.1369,0.1388,0.1417,0.1448,0.1487,0.1515,0.1548,0.1593,0.1635,0.1668,0.1683,0.1696,0.1679,0.1699,0.1743,0.1751,0.1759,0.1757,0.1681,0.1681,0.165,0.165,0.165]}]]